FW9377 Weather Reports


time (UTC)temp
C
wind
direction
speed
KPH
gust
KPH
rain 1hr
cm
rain 24hr
cm
rain mn
cm
humidity
%
barometer
mb
20260506233108 29 0 1.6 17.7 0.00 0.00 0.00 78 1008.9
20260506231602 29 0 4.8 14.5 0.00 0.00 0.00 77 1008.7
20260506230104 30 186 4.8 14.5 0.00 0.00 0.00 74 1008.7
20260506224607 30 169 4.8 11.3 0.00 0.00 0.00 74 1008.7
20260506223059 30 175 4.8 12.9 0.00 0.00 0.00 73 1008.6
20260506221558 31 166 1.6 12.9 0.00 0.00 0.00 71 1008.5
20260506214610 30 174 3.2 12.9 0.00 0.00 0.00 73 1008.4
20260506213058 31 188 4.8 11.3 0.00 0.00 0.00 72 1008.5
20260506211558 31 231 3.2 12.9 0.00 0.00 0.00 67 1008.6
20260506210059 31 144 4.8 17.7 0.00 0.00 0.00 68 1008.9
20260506204628 31 207 6.4 12.9 0.00 0.00 0.00 70 1009.0
20260506203058 31 168 8.0 19.3 0.00 0.00 0.00 71 1009.0
20260506201558 30 205 1.6 17.7 0.00 0.00 0.00 75 1009.1
20260506200057 30 184 3.2 14.5 0.00 0.00 0.00 74 1009.2
20260506194606 30 142 3.2 14.5 0.00 0.00 0.00 74 1009.3
20260506193100 31 185 3.2 14.5 0.00 0.00 0.00 71 1009.3
20260506191559 30 0 3.2 16.1 0.00 0.00 0.00 72 1009.5
20260506190059 30 173 1.6 12.9 0.00 0.00 0.00 72 1009.7
20260506184558 30 165 1.6 12.9 0.00 0.00 0.00 74 1009.9
20260506183106 29 139 0.0 9.7 0.00 0.00 0.00 75 1010.1
20260506181605 29 184 1.6 12.9 0.00 0.00 0.00 76 1010.4
20260506180058 29 0 3.2 9.7 0.00 0.00 0.00 76 1010.8
20260506174557 28 178 3.2 8.0 0.00 0.00 0.00 79 1010.9
20260506173100 28 0 0.0 8.0 0.00 0.00 0.00 81 1011.1
20260506171603 28 187 0.0 8.0 0.00 0.00 0.00 81 1011.2
20260506164603 27 0 1.6 8.0 0.00 0.00 0.00 83 1011.3
20260506163105 27 0 3.2 14.5 0.00 0.00 0.00 83 1011.3
20260506161606 27 0 0.0 6.4 0.00 0.00 0.00 85 1011.1
20260506160057 27 170 1.6 8.0 0.00 0.00 0.00 83 1011.0
20260506154613 27 192 4.8 14.5 0.00 0.00 0.00 83 1010.9
20260506153059 27 0 1.6 12.9 0.00 0.00 0.00 83 1010.9
20260506151558 27 193 0.0 8.0 0.00 0.00 0.00 83 1010.4
20260506150100 27 182 1.6 9.7 0.00 0.00 0.00 83 1010.3
20260506144604 27 174 1.6 11.3 0.00 0.00 0.00 84 1010.1
20260506143057 26 126 0.0 12.9 0.00 0.00 0.00 85 1010.0
20260506141604 26 128 0.0 4.8 0.00 0.00 0.00 86 1010.0
20260506140117 26 178 0.0 11.3 0.00 0.00 0.00 88 1010.1
20260506134559 25 0 0.0 12.9 0.00 0.00 0.00 90 1010.2
20260506133104 25 0 0.0 9.7 0.00 0.00 0.00 92 1010.3
20260506131558 25 149 1.6 4.8 0.00 0.00 0.00 92 1010.2
20260506130059 25 0 0.0 6.4 0.00 0.00 0.00 92 1010.3
20260506124602 25 0 0.0 9.7 0.00 0.00 0.00 92 1010.2
20260506123058 25 171 0.0 8.0 0.00 0.00 0.00 92 1010.1
20260506121557 25 0 1.6 8.0 0.00 0.00 0.00 92 1010.0
20260506120100 24 173 1.6 11.3 0.00 0.00 0.00 92 1009.8
20260506114604 24 170 1.6 16.1 0.00 0.00 0.00 92 1009.6
20260506113102 24 0 0.0 9.7 0.00 0.00 0.00 92 1009.4
20260506111606 24 151 0.0 8.0 0.00 0.00 0.00 91 1009.3
20260506110101 24 148 0.0 11.3 0.00 0.00 0.00 91 1009.0
20260506104600 24 0 1.6 9.7 0.00 0.00 0.00 91 1009.0
20260506103102 24 0 0.0 9.7 0.00 0.00 0.00 91 1009.0
20260506101558 24 0 1.6 8.0 0.00 0.00 0.00 91 1008.9
20260506094559 24 0 1.6 11.3 0.00 0.00 0.00 90 1008.8
20260506093102 24 190 0.0 6.4 0.00 0.00 0.00 90 1008.8
20260506091601 25 175 0.0 9.7 0.00 0.00 0.00 89 1008.8
20260506090108 25 187 3.2 11.3 0.00 0.00 0.00 89 1009.1
20260506084600 25 175 3.2 11.3 0.00 0.00 0.00 89 1009.2
20260506083101 25 178 1.6 11.3 0.00 0.00 0.00 89 1009.2
20260506081600 25 178 3.2 12.9 0.00 0.00 0.00 89 1009.3
20260506073059 25 0 3.2 16.1 0.00 0.00 0.00 88 1009.6
20260506071558 25 180 1.6 12.9 0.00 0.00 0.00 88 1009.7
20260506061602 25 178 1.6 12.9 0.00 0.00 0.00 87 1010.2
20260506050104 25 170 4.8 14.5 0.00 0.00 0.00 87 1010.0
20260506044635 25 179 3.2 14.5 0.00 0.00 0.00 87 1010.0
20260506043058 25 173 3.2 17.7 0.00 0.00 0.00 86 1009.9
20260506041559 25 0 3.2 16.1 0.00 0.00 0.00 86 1010.0
20260506040058 25 192 1.6 16.1 0.00 0.00 0.00 86 1009.8
20260506034559 25 0 3.2 14.5 0.00 0.00 0.00 85 1009.5
20260506033058 26 193 1.6 11.3 0.00 0.00 0.00 85 1009.4
20260506031600 26 177 3.2 16.1 0.00 0.00 0.00 84 1009.3
20260506030100 26 178 4.8 16.1 0.00 0.00 0.00 84 1009.2
20260506024601 26 0 1.6 16.1 0.00 0.00 0.00 83 1009.1
20260506023102 26 178 3.2 16.1 0.00 0.00 0.00 82 1008.8
20260506021610 26 186 4.8 19.3 0.00 0.00 0.00 82 1008.7
20260506014603 26 193 1.6 14.5 0.00 0.00 0.00 80 1008.5
20260506013106 26 175 4.8 19.3 0.00 0.00 0.00 79 1008.1
20260506011600 26 169 8.0 17.7 0.00 0.00 0.00 78 1008.0
20260506010115 26 179 6.4 19.3 0.00 0.00 0.00 78 1007.9
20260506004558 27 176 8.0 20.9 0.00 0.00 0.00 77 1007.9
20260506003059 27 197 6.4 22.5 0.00 0.00 0.00 76 1007.6
20260506001602 27 150 3.2 19.3 0.00 0.00 0.00 76 1007.5
20260505234609 27 188 6.4 19.3 0.00 0.00 0.00 75 1007.4